MSC2975 EDDP-HEGN

Flight info

Callsign MSC2975
Flight time 4h 9m
Altitude 37000
Route DRN2E DRN Z21 OMELO DCT GOLOP DCT ODNEM DCT XOMBA DCT KEROP DCT ESIRI DCT NISVA DCT NIKTI UN127 IMR UG80 BANRO UN128 RDS UL995 VANZA DCT RASDA A16 CVO L315 OBTAV DCT SOKOT SOKOT1A
Aircraft A20N/M-SDE2E3FGHIRWXY/LB1

Departure

Time 2026-05-07 07:35
Airport Leipzig/Halle Airport (EDDP)

Arrival

Time 2026-05-07 11:45
Airport Hurghada International Airport (HEGN)
Time Latitude Longitude Altitude Speed Heading
2026-05-07 07:16 51.41908 12.22034 480 ft 0 kts 15°
2026-05-07 07:25 51.41897 12.22029 480 ft 2 kts 15°
2026-05-07 07:26 51.41882 12.22023 480 ft 2 kts 15°
2026-05-07 07:26 51.41868 12.22016 480 ft 2 kts 15°
2026-05-07 07:26 51.41854 12.22010 480 ft 2 kts 15°
2026-05-07 07:26 51.41843 12.22005 480 ft 0 kts 15°
2026-05-07 07:27 51.41830 12.22002 480 ft 2 kts 350°
2026-05-07 07:27 51.41816 12.22010 480 ft 2 kts 325°
2026-05-07 07:27 51.41805 12.22027 480 ft 2 kts 298°
2026-05-07 07:27 51.41802 12.22039 480 ft 1 kts 283°
2026-05-07 07:28 51.41801 12.22047 480 ft 0 kts 285°
2026-05-07 07:29 51.41802 12.22039 480 ft 1 kts 285°
2026-05-07 07:30 51.41804 12.22028 480 ft 0 kts 290°
2026-05-07 07:30 51.41807 12.22015 480 ft 1 kts 289°
2026-05-07 07:30 51.41813 12.21989 480 ft 3 kts 288°
2026-05-07 07:30 51.41820 12.21952 480 ft 4 kts 286°
2026-05-07 07:31 51.41833 12.21863 480 ft 13 kts 283°
2026-05-07 07:31 51.41857 12.21716 480 ft 13 kts 285°
2026-05-07 07:31 51.41886 12.21567 480 ft 14 kts 285°
2026-05-07 07:31 51.41914 12.21411 480 ft 14 kts 285°
2026-05-07 07:32 51.41943 12.21247 480 ft 15 kts 284°
2026-05-07 07:32 51.41970 12.21076 480 ft 15 kts 283°
2026-05-07 07:32 51.41972 12.20910 480 ft 14 kts 229°
2026-05-07 07:32 51.41876 12.20851 480 ft 15 kts 195°
2026-05-07 07:33 51.41774 12.20804 480 ft 15 kts 195°
2026-05-07 07:33 51.41669 12.20758 480 ft 15 kts 194°
2026-05-07 07:33 51.41562 12.20714 480 ft 16 kts 194°
2026-05-07 07:33 51.41452 12.20669 480 ft 16 kts 195°
2026-05-07 07:34 51.41342 12.20617 480 ft 16 kts 196°
2026-05-07 07:34 51.41231 12.20566 480 ft 16 kts 195°
2026-05-07 07:34 51.41174 12.20666 480 ft 15 kts 83°
2026-05-07 07:34 51.41185 12.20849 480 ft 23 kts 85°
2026-05-07 07:35 51.41219 12.21508 481 ft 94 kts 83°
2026-05-07 07:35 51.41283 12.22881 481 ft 151 kts 82°
2026-05-07 07:35 51.41374 12.24678 869 ft 165 kts 82°
2026-05-07 07:35 51.41488 12.26442 1624 ft 159 kts 81°
2026-05-07 07:36 51.41576 12.28187 2274 ft 163 kts 83°
2026-05-07 07:36 51.41654 12.30078 2766 ft 178 kts 83°
2026-05-07 07:36 51.41741 12.32139 3239 ft 194 kts 83°
2026-05-07 07:36 51.41837 12.34355 3833 ft 205 kts 83°
2026-05-07 07:37 51.41937 12.36645 4591 ft 209 kts 83°
2026-05-07 07:37 51.42043 12.39006 5371 ft 213 kts 83°
2026-05-07 07:37 51.42151 12.41359 6125 ft 217 kts 84°
2026-05-07 07:37 51.42262 12.43798 6712 ft 233 kts 84°
2026-05-07 07:38 51.42385 12.46529 7242 ft 255 kts 84°
2026-05-07 07:38 51.42519 12.49450 7883 ft 273 kts 84°
2026-05-07 07:38 51.42656 12.52505 8667 ft 285 kts 84°
2026-05-07 07:38 51.42681 12.55697 9625 ft 292 kts 97°
2026-05-07 07:39 51.42068 12.58760 10546 ft 299 kts 118°
2026-05-07 07:39 51.40958 12.61664 11222 ft 314 kts 123°
2026-05-07 07:39 51.39729 12.64679 11769 ft 333 kts 124°
2026-05-07 07:39 51.38436 12.67851 12297 ft 351 kts 123°
2026-05-07 07:40 51.37076 12.71219 12828 ft 367 kts 124°
2026-05-07 07:40 51.35705 12.74637 13628 ft 373 kts 123°
2026-05-07 07:40 51.34304 12.78149 14508 ft 373 kts 124°
2026-05-07 07:40 51.32908 12.81646 15092 ft 376 kts 123°
2026-05-07 07:41 51.31500 12.85170 15610 ft 381 kts 124°
2026-05-07 07:41 51.30075 12.88733 16160 ft 384 kts 124°
2026-05-07 07:41 51.28646 12.92303 16712 ft 386 kts 124°
2026-05-07 07:41 51.27196 12.95927 17266 ft 389 kts 123°
2026-05-07 07:42 51.25731 12.99584 17783 ft 392 kts 123°
2026-05-07 07:42 51.24269 13.03230 18285 ft 395 kts 123°
2026-05-07 07:42 51.22785 13.06921 18791 ft 397 kts 123°
2026-05-07 07:42 51.21291 13.10636 19295 ft 400 kts 123°
2026-05-07 07:43 51.19790 13.14356 19796 ft 402 kts 123°
2026-05-07 07:43 51.18274 13.18111 20284 ft 404 kts 123°
2026-05-07 07:43 51.16774 13.21829 20753 ft 407 kts 123°
2026-05-07 07:43 51.15257 13.25634 21228 ft 409 kts 123°
2026-05-07 07:44 51.13733 13.29471 21688 ft 411 kts 122°
2026-05-07 07:44 51.12200 13.33326 22140 ft 413 kts 122°
2026-05-07 07:44 51.10662 13.37186 22584 ft 415 kts 122°
2026-05-07 07:44 51.09129 13.41028 23019 ft 417 kts 122°
2026-05-07 07:45 51.07572 13.44925 23438 ft 419 kts 122°
2026-05-07 07:45 51.06007 13.48831 23844 ft 421 kts 122°
2026-05-07 07:45 51.04423 13.52779 24180 ft 425 kts 122°
2026-05-07 07:45 51.02841 13.56713 24436 ft 430 kts 122°
2026-05-07 07:46 51.01224 13.60740 24747 ft 433 kts 123°
2026-05-07 07:46 50.99620 13.64773 25108 ft 435 kts 123°
2026-05-07 07:46 50.98009 13.68841 25479 ft 436 kts 124°
2026-05-07 07:46 50.96389 13.72921 25834 ft 437 kts 124°
2026-05-07 07:47 50.94779 13.76966 26161 ft 439 kts 124°
2026-05-07 07:47 50.93095 13.81011 26449 ft 440 kts 128°
2026-05-07 07:47 50.91281 13.84885 26726 ft 441 kts 130°
2026-05-07 07:47 50.89408 13.88697 27016 ft 443 kts 131°
2026-05-07 07:48 50.87494 13.92588 27317 ft 444 kts 131°
2026-05-07 07:48 50.85611 13.96411 27597 ft 445 kts 131°
2026-05-07 07:48 50.83709 14.00266 27944 ft 445 kts 131°
2026-05-07 07:48 50.81788 14.04107 28380 ft 442 kts 133°
2026-05-07 07:49 50.79891 14.07862 28814 ft 439 kts 133°
2026-05-07 07:49 50.78004 14.11580 29231 ft 436 kts 133°
2026-05-07 07:49 50.76115 14.15297 29642 ft 434 kts 134°
2026-05-07 07:49 50.74238 14.18988 30050 ft 431 kts 134°
2026-05-07 07:50 50.72363 14.22668 30452 ft 428 kts 134°
2026-05-07 07:50 50.70520 14.26286 30835 ft 426 kts 135°
2026-05-07 07:50 50.68672 14.29902 31157 ft 424 kts 135°
2026-05-07 07:50 50.66825 14.33513 31408 ft 425 kts 135°
2026-05-07 07:51 50.64954 14.37163 31656 ft 425 kts 135°
2026-05-07 07:51 50.63124 14.40730 31898 ft 425 kts 135°
2026-05-07 07:51 50.61254 14.44374 32136 ft 425 kts 135°
2026-05-07 07:51 50.59392 14.47969 32364 ft 425 kts 136°
2026-05-07 07:52 50.57441 14.51418 32581 ft 422 kts 139°
2026-05-07 07:52 50.55415 14.54714 32818 ft 421 kts 140°
2026-05-07 07:52 50.53379 14.58018 33037 ft 421 kts 140°
2026-05-07 07:52 50.51350 14.61308 33281 ft 420 kts 140°
2026-05-07 07:53 50.49311 14.64611 33493 ft 420 kts 139°
2026-05-07 07:53 50.47287 14.67886 33687 ft 420 kts 140°
2026-05-07 07:53 50.45244 14.71185 33892 ft 419 kts 140°
2026-05-07 07:53 50.43219 14.74452 34058 ft 420 kts 140°
2026-05-07 07:54 50.41187 14.77725 34228 ft 420 kts 140°
2026-05-07 07:54 50.39170 14.80970 34402 ft 420 kts 140°
2026-05-07 07:54 50.37144 14.84226 34532 ft 419 kts 140°
2026-05-07 07:55 50.33054 14.90778 34740 ft 420 kts 140°
2026-05-07 07:55 50.28995 14.97269 34943 ft 421 kts 140°
2026-05-07 07:55 50.26939 15.00550 35053 ft 421 kts 140°
2026-05-07 07:56 50.24894 15.03813 35200 ft 420 kts 140°
2026-05-07 07:56 50.22858 15.07054 35309 ft 420 kts 140°
2026-05-07 07:56 50.20802 15.10324 35389 ft 421 kts 140°
2026-05-07 07:57 50.16713 15.16808 35529 ft 422 kts 140°
2026-05-07 07:57 50.14668 15.20046 35630 ft 423 kts 140°
2026-05-07 07:57 50.12612 15.23298 35736 ft 422 kts 140°
2026-05-07 07:57 50.10556 15.26546 35845 ft 422 kts 140°
2026-05-07 07:58 50.08482 15.29818 35954 ft 421 kts 140°
2026-05-07 07:58 50.04368 15.36293 36116 ft 424 kts 140°
2026-05-07 07:59 50.00245 15.42770 36286 ft 425 kts 140°
2026-05-07 07:59 49.96079 15.49291 36470 ft 425 kts 140°
2026-05-07 08:00 49.91923 15.55782 36604 ft 427 kts 140°
2026-05-07 08:00 49.87720 15.62333 36783 ft 428 kts 140°
2026-05-07 08:01 49.83501 15.68886 36904 ft 430 kts 141°
2026-05-07 08:01 49.79290 15.75414 36904 ft 430 kts 141°
2026-05-07 08:02 49.75062 15.81952 36908 ft 429 kts 141°
2026-05-07 08:02 49.70845 15.88455 36903 ft 428 kts 141°
2026-05-07 08:03 49.66647 15.94910 36903 ft 428 kts 141°
2026-05-07 08:03 49.62429 16.01380 36908 ft 428 kts 141°
2026-05-07 08:04 49.58242 16.07786 36915 ft 427 kts 141°
2026-05-07 08:04 49.54026 16.14221 36929 ft 426 kts 141°
2026-05-07 08:05 49.49837 16.20595 36924 ft 428 kts 141°
2026-05-07 08:05 49.45621 16.26995 36923 ft 427 kts 141°
2026-05-07 08:06 49.41390 16.33402 36922 ft 427 kts 141°
2026-05-07 08:06 49.37192 16.39741 36922 ft 427 kts 141°
2026-05-07 08:07 49.32945 16.46139 36940 ft 427 kts 141°
2026-05-07 08:07 49.28739 16.52459 36943 ft 426 kts 141°
2026-05-07 08:08 49.24511 16.58799 36935 ft 426 kts 141°
2026-05-07 08:08 49.20307 16.65085 36947 ft 425 kts 142°
2026-05-07 08:09 49.16092 16.71371 36939 ft 425 kts 142°
2026-05-07 08:09 49.11869 16.77654 36937 ft 426 kts 142°
2026-05-07 08:10 49.07630 16.83946 36926 ft 426 kts 142°
2026-05-07 08:10 49.03364 16.90259 36939 ft 426 kts 142°
2026-05-07 08:11 48.99135 16.96506 36937 ft 426 kts 142°
2026-05-07 08:11 48.94895 17.02753 36919 ft 426 kts 142°
2026-05-07 08:12 48.90644 17.08995 36929 ft 426 kts 142°
2026-05-07 08:12 48.86200 17.14891 36924 ft 422 kts 148°
2026-05-07 08:13 48.81427 17.19915 36936 ft 418 kts 154°
2026-05-07 08:13 48.76392 17.24203 36933 ft 416 kts 156°
2026-05-07 08:14 48.71337 17.28413 36931 ft 416 kts 156°
2026-05-07 08:14 48.66263 17.32627 36927 ft 417 kts 156°
2026-05-07 08:15 48.61215 17.36808 36926 ft 417 kts 156°
2026-05-07 08:15 48.56112 17.41024 36945 ft 416 kts 157°
2026-05-07 08:16 48.51039 17.45204 36937 ft 417 kts 156°
2026-05-07 08:16 48.45951 17.49386 36921 ft 417 kts 156°
2026-05-07 08:17 48.40895 17.53533 36943 ft 417 kts 156°
2026-05-07 08:17 48.35815 17.57690 36951 ft 417 kts 157°
2026-05-07 08:18 48.30704 17.61863 36951 ft 417 kts 157°
2026-05-07 08:18 48.25602 17.66017 36942 ft 418 kts 158°
2026-05-07 08:19 48.20511 17.70155 36937 ft 418 kts 158°
2026-05-07 08:19 48.15406 17.74294 36933 ft 419 kts 157°
2026-05-07 08:20 48.10294 17.78430 36942 ft 419 kts 158°
2026-05-07 08:20 48.05191 17.82550 36945 ft 418 kts 158°
2026-05-07 08:21 48.00061 17.86681 36938 ft 419 kts 158°
2026-05-07 08:21 47.94946 17.90792 36935 ft 418 kts 158°
2026-05-07 08:22 47.89819 17.94901 36944 ft 419 kts 158°
2026-05-07 08:22 47.84681 17.99012 36945 ft 419 kts 157°
2026-05-07 08:23 47.79559 18.03102 36942 ft 419 kts 158°
2026-05-07 08:23 47.74524 18.07508 36940 ft 425 kts 152°
2026-05-07 08:24 47.69722 18.12599 36940 ft 426 kts 150°
2026-05-07 08:24 47.64923 18.17752 36944 ft 427 kts 150°
2026-05-07 08:25 47.60139 18.22878 36946 ft 428 kts 150°
2026-05-07 08:25 47.55335 18.28016 36948 ft 428 kts 150°
2026-05-07 08:26 47.48090 18.35744 36949 ft 428 kts 150°
2026-05-07 08:26 47.43272 18.40867 36952 ft 429 kts 150°
2026-05-07 08:27 47.38431 18.46003 36957 ft 430 kts 149°
2026-05-07 08:27 47.33593 18.51124 36953 ft 430 kts 150°
2026-05-07 08:28 47.28757 18.56232 36956 ft 429 kts 149°
2026-05-07 08:28 47.23904 18.61346 36954 ft 431 kts 149°
2026-05-07 08:29 47.19020 18.66482 36960 ft 431 kts 150°
2026-05-07 08:29 47.14165 18.71575 36964 ft 431 kts 150°
2026-05-07 08:30 47.09301 18.76663 36975 ft 431 kts 150°
2026-05-07 08:30 47.04450 18.81727 36979 ft 430 kts 150°
2026-05-07 08:31 46.99587 18.86795 36978 ft 430 kts 150°
2026-05-07 08:31 46.94729 18.91848 36977 ft 430 kts 150°
2026-05-07 08:32 46.89857 18.96896 36979 ft 431 kts 150°
2026-05-07 08:32 46.84943 19.01980 36978 ft 432 kts 150°
2026-05-07 08:33 46.80080 19.07000 36980 ft 432 kts 150°
2026-05-07 08:33 46.75169 19.12059 36980 ft 433 kts 150°
2026-05-07 08:34 46.70261 19.17102 36980 ft 433 kts 150°
2026-05-07 08:34 46.65342 19.22147 36981 ft 434 kts 150°
2026-05-07 08:35 46.60411 19.27191 36983 ft 434 kts 150°
2026-05-07 08:35 46.55500 19.32204 36981 ft 434 kts 150°
2026-05-07 08:36 46.50572 19.37223 36983 ft 434 kts 150°
2026-05-07 08:36 46.45616 19.42259 36983 ft 435 kts 150°
2026-05-07 08:37 46.40673 19.47271 36986 ft 434 kts 150°
2026-05-07 08:37 46.35728 19.52273 36987 ft 435 kts 150°
2026-05-07 08:38 46.30780 19.57267 36983 ft 435 kts 150°
2026-05-07 08:38 46.25825 19.62260 36985 ft 436 kts 150°
2026-05-07 08:39 46.20886 19.67223 36989 ft 435 kts 150°
2026-05-07 08:39 46.15923 19.72175 36990 ft 434 kts 151°
2026-05-07 08:40 46.10919 19.77101 36986 ft 435 kts 151°
2026-05-07 08:40 46.05945 19.81989 36990 ft 435 kts 151°
2026-05-07 08:41 46.00965 19.86876 36990 ft 436 kts 151°
2026-05-07 08:41 45.95940 19.91800 36997 ft 436 kts 151°
2026-05-07 08:42 45.90921 19.96705 36996 ft 438 kts 151°
2026-05-07 08:42 45.85885 20.01617 36993 ft 437 kts 151°
2026-05-07 08:43 45.80853 20.06515 36995 ft 438 kts 150°
2026-05-07 08:43 45.75825 20.11396 36996 ft 438 kts 150°
2026-05-07 08:44 45.70804 20.16263 36999 ft 438 kts 150°
2026-05-07 08:44 45.65777 20.21121 37000 ft 439 kts 150°
2026-05-07 08:45 45.60703 20.26016 36994 ft 439 kts 150°
2026-05-07 08:45 45.55657 20.30873 36997 ft 440 kts 150°
2026-05-07 08:46 45.50599 20.35730 37006 ft 440 kts 150°
2026-05-07 08:46 45.45523 20.40594 37007 ft 440 kts 150°
2026-05-07 08:47 45.40487 20.45413 37002 ft 440 kts 150°
2026-05-07 08:47 45.35403 20.50261 36999 ft 440 kts 150°
2026-05-07 08:48 45.30333 20.55089 37002 ft 440 kts 150°
2026-05-07 08:48 45.25271 20.59898 37005 ft 440 kts 150°
2026-05-07 08:49 45.20195 20.64708 37001 ft 440 kts 150°
2026-05-07 08:49 45.15110 20.69519 37004 ft 440 kts 151°
2026-05-07 08:50 45.10022 20.74322 37008 ft 440 kts 151°
2026-05-07 08:50 45.04932 20.79116 37011 ft 440 kts 151°
2026-05-07 08:51 44.99847 20.83894 37013 ft 439 kts 151°
2026-05-07 08:51 44.94754 20.88670 37016 ft 439 kts 151°
2026-05-07 08:52 44.89684 20.93413 37016 ft 439 kts 151°
2026-05-07 08:52 44.84591 20.98170 37017 ft 439 kts 151°
2026-05-07 08:53 44.79514 21.02898 37033 ft 439 kts 150°
2026-05-07 08:53 44.74415 21.07635 37041 ft 440 kts 150°
2026-05-07 08:54 44.69304 21.12379 37049 ft 440 kts 151°
2026-05-07 08:54 44.64225 21.17082 37050 ft 439 kts 151°
2026-05-07 08:55 44.59131 21.21785 37053 ft 440 kts 151°
2026-05-07 08:55 44.54012 21.26506 37054 ft 441 kts 151°
2026-05-07 08:56 44.48904 21.31203 37057 ft 441 kts 151°
2026-05-07 08:56 44.43772 21.35916 37054 ft 442 kts 151°
2026-05-07 08:57 44.38658 21.40599 37054 ft 442 kts 151°
2026-05-07 08:57 44.33512 21.45303 37061 ft 443 kts 150°
2026-05-07 08:58 44.28493 21.50282 37062 ft 445 kts 148°
2026-05-07 08:58 44.23486 21.55354 37065 ft 444 kts 148°
2026-05-07 08:59 44.18500 21.60391 37063 ft 444 kts 148°
2026-05-07 08:59 44.13498 21.65436 37068 ft 445 kts 149°
2026-05-07 09:00 44.08465 21.70501 37070 ft 445 kts 149°
2026-05-07 09:00 44.03471 21.75517 37079 ft 446 kts 149°
2026-05-07 09:01 43.98438 21.80563 37077 ft 447 kts 149°
2026-05-07 09:01 43.93420 21.85580 37083 ft 447 kts 148°
2026-05-07 09:02 43.88366 21.90627 37076 ft 447 kts 148°
2026-05-07 09:02 43.83310 21.95663 37074 ft 447 kts 149°
2026-05-07 09:03 43.78286 22.00655 37076 ft 448 kts 149°
2026-05-07 09:03 43.73231 22.05666 37079 ft 448 kts 148°
2026-05-07 09:04 43.68186 22.10660 37074 ft 448 kts 148°
2026-05-07 09:04 43.63114 22.15668 37081 ft 449 kts 148°
2026-05-07 09:05 43.58066 22.20643 37077 ft 449 kts 148°
2026-05-07 09:05 43.52975 22.25651 37081 ft 450 kts 148°
2026-05-07 09:06 43.47893 22.30635 37088 ft 450 kts 148°
2026-05-07 09:06 43.42809 22.35616 37089 ft 450 kts 148°
2026-05-07 09:07 43.37720 22.40585 37086 ft 451 kts 148°
2026-05-07 09:07 43.32603 22.45576 37077 ft 451 kts 148°
2026-05-07 09:08 43.27506 22.50536 37075 ft 452 kts 148°
2026-05-07 09:08 43.22389 22.55505 37076 ft 452 kts 148°
2026-05-07 09:09 43.17292 22.60449 37077 ft 453 kts 148°
2026-05-07 09:09 43.12132 22.65439 37079 ft 452 kts 149°
2026-05-07 09:10 43.07010 22.70382 37085 ft 453 kts 148°
2026-05-07 09:10 43.01842 22.75359 37090 ft 453 kts 148°
2026-05-07 09:11 42.96692 22.80307 37083 ft 454 kts 148°
2026-05-07 09:11 42.91531 22.85226 37090 ft 454 kts 148°
2026-05-07 09:12 42.86352 22.90146 37092 ft 454 kts 148°
2026-05-07 09:12 42.81200 22.95038 37096 ft 454 kts 148°
2026-05-07 09:13 42.76033 22.99935 37101 ft 454 kts 148°
2026-05-07 09:13 42.70855 23.04831 37098 ft 454 kts 148°
2026-05-07 09:14 42.65664 23.09731 37102 ft 454 kts 148°
2026-05-07 09:14 42.60483 23.14611 37099 ft 454 kts 148°
2026-05-07 09:15 42.55322 23.19460 37104 ft 454 kts 148°
2026-05-07 09:15 42.50137 23.24323 37110 ft 454 kts 148°
2026-05-07 09:16 42.44936 23.29190 37118 ft 454 kts 148°
2026-05-07 09:16 42.39731 23.34054 37121 ft 454 kts 148°
2026-05-07 09:17 42.34555 23.38880 37122 ft 454 kts 148°
2026-05-07 09:17 42.29343 23.43727 37121 ft 454 kts 148°
2026-05-07 09:18 42.24139 23.48558 37120 ft 454 kts 148°
2026-05-07 09:18 42.18965 23.53352 37122 ft 454 kts 148°
2026-05-07 09:19 42.13763 23.58162 37122 ft 454 kts 148°
2026-05-07 09:19 42.08540 23.62980 37129 ft 454 kts 148°
2026-05-07 09:20 42.03339 23.67771 37133 ft 455 kts 149°
2026-05-07 09:20 41.98124 23.72564 37135 ft 454 kts 149°
2026-05-07 09:21 41.92892 23.77362 37140 ft 455 kts 149°
2026-05-07 09:21 41.87712 23.82106 37136 ft 454 kts 149°
2026-05-07 09:22 41.82478 23.86886 37487 ft 455 kts 149°
2026-05-07 09:22 41.79885 23.89251 37251 ft 453 kts 149°
2026-05-07 09:22 41.77277 23.91629 37178 ft 453 kts 149°
2026-05-07 09:23 41.72079 23.96358 36832 ft 452 kts 149°
2026-05-07 09:23 41.69501 23.98701 37049 ft 451 kts 149°
2026-05-07 09:23 41.66876 24.01081 37106 ft 453 kts 149°
2026-05-07 09:24 41.61659 24.05813 37122 ft 455 kts 149°
2026-05-07 09:24 41.56441 24.10534 37125 ft 455 kts 149°
2026-05-07 09:25 41.51200 24.15245 37330 ft 455 kts 149°
2026-05-07 09:25 41.48591 24.17577 37191 ft 453 kts 149°
2026-05-07 09:25 41.45989 24.19898 37152 ft 453 kts 149°
2026-05-07 09:26 41.40749 24.24569 36756 ft 453 kts 149°
2026-05-07 09:26 41.38147 24.26887 36995 ft 451 kts 149°
2026-05-07 09:26 41.35554 24.29194 37082 ft 453 kts 149°
2026-05-07 09:27 41.30293 24.33872 37104 ft 455 kts 149°
2026-05-07 09:28 41.22395 24.40875 37092 ft 456 kts 149°
2026-05-07 09:28 41.16949 24.45076 37085 ft 454 kts 156°
2026-05-07 09:29 41.11277 24.48708 37087 ft 455 kts 157°
2026-05-07 09:29 41.05585 24.52341 37087 ft 455 kts 157°
2026-05-07 09:30 40.99861 24.55995 37084 ft 456 kts 157°
2026-05-07 09:30 40.94186 24.59616 37076 ft 455 kts 157°
2026-05-07 09:31 40.88449 24.63262 37086 ft 455 kts 157°
2026-05-07 09:31 40.82745 24.66886 37077 ft 455 kts 158°
2026-05-07 09:32 40.77020 24.70517 37076 ft 455 kts 158°
2026-05-07 09:32 40.71327 24.74134 37332 ft 456 kts 158°
2026-05-07 09:32 40.68470 24.75948 37147 ft 454 kts 158°
2026-05-07 09:33 40.65654 24.77728 37097 ft 454 kts 158°
2026-05-07 09:33 40.59938 24.81333 37073 ft 454 kts 158°
2026-05-07 09:34 40.54273 24.84900 37072 ft 454 kts 158°
2026-05-07 09:34 40.48571 24.88480 37070 ft 453 kts 158°
2026-05-07 09:35 40.42884 24.92047 37072 ft 454 kts 158°
2026-05-07 09:35 40.37209 24.95601 37074 ft 453 kts 158°
2026-05-07 09:36 40.31518 24.99159 37068 ft 453 kts 158°
2026-05-07 09:36 40.25836 25.02704 37077 ft 453 kts 158°
2026-05-07 09:37 40.20172 25.06231 37071 ft 453 kts 158°
2026-05-07 09:37 40.14485 25.09768 37073 ft 453 kts 158°
2026-05-07 09:38 40.08810 25.13291 37080 ft 453 kts 158°
2026-05-07 09:38 40.03091 25.16835 37082 ft 453 kts 158°
2026-05-07 09:39 39.97422 25.20360 37081 ft 453 kts 156°
2026-05-07 09:39 39.91957 25.24459 37083 ft 455 kts 149°
2026-05-07 09:40 39.86899 25.29392 37085 ft 455 kts 141°
2026-05-07 09:40 39.82145 25.34806 37089 ft 455 kts 140°
2026-05-07 09:41 39.77381 25.40238 37090 ft 456 kts 141°
2026-05-07 09:41 39.72626 25.45633 37090 ft 457 kts 141°
2026-05-07 09:42 39.67835 25.51047 37090 ft 457 kts 141°
2026-05-07 09:42 39.63018 25.56484 37086 ft 458 kts 141°
2026-05-07 09:43 39.58218 25.61887 37095 ft 459 kts 141°
2026-05-07 09:43 39.53396 25.67304 37096 ft 459 kts 141°
2026-05-07 09:44 39.48571 25.72718 36875 ft 458 kts 141°
2026-05-07 09:44 39.46183 25.75393 37037 ft 458 kts 141°
2026-05-07 09:44 39.43749 25.78116 37080 ft 461 kts 141°
2026-05-07 09:45 39.38889 25.83545 37094 ft 463 kts 141°
2026-05-07 09:45 39.34050 25.88946 37103 ft 464 kts 141°
2026-05-07 09:46 39.29164 25.94384 37107 ft 464 kts 141°
2026-05-07 09:46 39.24218 25.99731 37116 ft 464 kts 142°
2026-05-07 09:47 39.19269 26.05024 37109 ft 464 kts 142°
2026-05-07 09:47 39.14300 26.10342 37116 ft 465 kts 142°
2026-05-07 09:48 39.09349 26.15639 37114 ft 465 kts 142°
2026-05-07 09:48 39.04370 26.20956 37117 ft 466 kts 142°
2026-05-07 09:49 38.99400 26.26256 37110 ft 467 kts 142°
2026-05-07 09:49 38.94402 26.31576 37120 ft 467 kts 142°
2026-05-07 09:50 38.89407 26.36885 37107 ft 468 kts 142°
2026-05-07 09:50 38.84374 26.42220 37111 ft 468 kts 142°
2026-05-07 09:51 38.79408 26.47652 37116 ft 469 kts 140°
2026-05-07 09:51 38.74526 26.53162 37108 ft 470 kts 140°
2026-05-07 09:52 38.69643 26.58647 37114 ft 471 kts 140°
2026-05-07 09:52 38.64713 26.64159 37117 ft 470 kts 140°
2026-05-07 09:53 38.59766 26.69671 37115 ft 470 kts 141°
2026-05-07 09:53 38.54857 26.75132 37115 ft 471 kts 140°
2026-05-07 09:54 38.49902 26.80635 37120 ft 472 kts 140°
2026-05-07 09:54 38.44979 26.86091 37122 ft 472 kts 140°
2026-05-07 09:55 38.40022 26.91581 37124 ft 473 kts 140°
2026-05-07 09:55 38.34972 26.96968 37135 ft 472 kts 144°
2026-05-07 09:56 38.29524 27.01574 37140 ft 469 kts 153°
2026-05-07 09:56 38.23710 27.05226 37146 ft 468 kts 159°
2026-05-07 09:57 38.17740 27.08500 37141 ft 469 kts 159°
2026-05-07 09:57 38.11726 27.11809 37137 ft 469 kts 159°
2026-05-07 09:58 38.05745 27.15109 37135 ft 469 kts 159°
2026-05-07 09:58 37.99795 27.18394 37126 ft 470 kts 159°
2026-05-07 09:59 37.93791 27.21704 37121 ft 471 kts 159°
2026-05-07 09:59 37.87755 27.25023 37121 ft 473 kts 159°
2026-05-07 10:00 37.81726 27.28336 37121 ft 474 kts 159°
2026-05-07 10:00 37.75699 27.31639 37122 ft 473 kts 159°
2026-05-07 10:01 37.69648 27.34955 37120 ft 473 kts 159°
2026-05-07 10:01 37.63626 27.38243 37113 ft 474 kts 159°
2026-05-07 10:02 37.57613 27.41644 37117 ft 475 kts 157°
2026-05-07 10:02 37.51599 27.45128 37110 ft 476 kts 158°
2026-05-07 10:03 37.45516 27.48466 37113 ft 477 kts 160°
2026-05-07 10:03 37.39387 27.51636 37118 ft 477 kts 160°
2026-05-07 10:04 37.33272 27.54825 37122 ft 478 kts 160°
2026-05-07 10:04 37.27141 27.58042 37127 ft 478 kts 159°
2026-05-07 10:05 37.21068 27.61331 37124 ft 478 kts 158°
2026-05-07 10:05 37.14943 27.64663 37127 ft 479 kts 159°
2026-05-07 10:06 37.08830 27.67975 37128 ft 479 kts 159°
2026-05-07 10:06 37.02696 27.71286 37119 ft 479 kts 159°
2026-05-07 10:07 36.96604 27.74570 37118 ft 479 kts 159°
2026-05-07 10:07 36.90473 27.77867 37120 ft 480 kts 159°
2026-05-07 10:08 36.84365 27.81148 37116 ft 480 kts 159°
2026-05-07 10:08 36.78211 27.84449 37119 ft 481 kts 159°
2026-05-07 10:09 36.72070 27.87736 37116 ft 481 kts 159°
2026-05-07 10:09 36.65939 27.90965 37117 ft 481 kts 160°
2026-05-07 10:10 36.59736 27.94182 37119 ft 481 kts 160°
2026-05-07 10:10 36.53593 27.97376 37120 ft 482 kts 160°
2026-05-07 10:11 36.47408 28.00627 37124 ft 483 kts 158°
2026-05-07 10:11 36.41291 28.04104 37121 ft 482 kts 156°
2026-05-07 10:12 36.35490 28.08207 37118 ft 484 kts 147°
2026-05-07 10:12 36.30195 28.13378 37127 ft 485 kts 137°
2026-05-07 10:13 36.25529 28.19378 37124 ft 485 kts 131°
2026-05-07 10:13 36.20985 28.25569 37119 ft 485 kts 131°
2026-05-07 10:14 36.16431 28.31698 37121 ft 485 kts 131°
2026-05-07 10:14 36.11854 28.37803 37125 ft 485 kts 131°
2026-05-07 10:15 36.07279 28.43893 37124 ft 486 kts 132°
2026-05-07 10:15 36.02684 28.49980 37119 ft 485 kts 132°
2026-05-07 10:16 35.98093 28.56052 37115 ft 485 kts 131°
2026-05-07 10:16 35.93481 28.62147 37117 ft 485 kts 131°
2026-05-07 10:17 35.88864 28.68220 37114 ft 485 kts 133°
2026-05-07 10:17 35.84049 28.74000 37118 ft 485 kts 136°
2026-05-07 10:18 35.79147 28.79762 37115 ft 486 kts 136°
2026-05-07 10:18 35.74293 28.85471 37120 ft 485 kts 136°
2026-05-07 10:19 35.69432 28.91186 37119 ft 485 kts 135°
2026-05-07 10:19 35.64556 28.96911 37119 ft 485 kts 136°
2026-05-07 10:20 35.59698 29.02606 37122 ft 486 kts 135°
2026-05-07 10:20 35.54792 29.08345 37122 ft 485 kts 135°
2026-05-07 10:21 35.49910 29.14051 37124 ft 485 kts 135°
2026-05-07 10:21 35.45034 29.19735 37128 ft 484 kts 135°
2026-05-07 10:22 35.40175 29.25391 37148 ft 485 kts 135°
2026-05-07 10:22 35.35297 29.31064 37142 ft 484 kts 136°
2026-05-07 10:23 35.30410 29.36728 37137 ft 485 kts 136°
2026-05-07 10:23 35.25505 29.42406 37139 ft 484 kts 136°
2026-05-07 10:24 35.20624 29.48052 37138 ft 484 kts 136°
2026-05-07 10:24 35.15732 29.53694 37137 ft 484 kts 136°
2026-05-07 10:25 35.10857 29.59314 37141 ft 483 kts 136°
2026-05-07 10:25 35.05985 29.64919 37140 ft 482 kts 136°
2026-05-07 10:26 35.01076 29.70558 37141 ft 482 kts 136°
2026-05-07 10:26 34.96236 29.76116 37135 ft 481 kts 136°
2026-05-07 10:27 34.91407 29.81765 37135 ft 481 kts 136°
2026-05-07 10:27 34.86586 29.87404 37135 ft 479 kts 136°
2026-05-07 10:28 34.81791 29.92996 37137 ft 478 kts 136°
2026-05-07 10:28 34.76707 29.98242 37138 ft 478 kts 144°
2026-05-07 10:29 34.71140 30.02623 37134 ft 477 kts 152°
2026-05-07 10:29 34.65200 30.06215 37138 ft 476 kts 156°
2026-05-07 10:30 34.56258 30.11378 37133 ft 476 kts 156°
2026-05-07 10:30 34.50298 30.14836 37134 ft 475 kts 156°
2026-05-07 10:31 34.44339 30.18300 37136 ft 476 kts 156°
2026-05-07 10:31 34.38377 30.21761 37137 ft 476 kts 156°
2026-05-07 10:32 34.32435 30.25202 37131 ft 475 kts 156°
2026-05-07 10:32 34.26453 30.28666 37133 ft 475 kts 156°
2026-05-07 10:33 34.20532 30.32086 37134 ft 475 kts 156°
2026-05-07 10:33 34.14565 30.35527 37126 ft 474 kts 156°
2026-05-07 10:34 34.08642 30.38935 37134 ft 475 kts 156°
2026-05-07 10:34 34.02694 30.42357 37133 ft 475 kts 156°
2026-05-07 10:35 33.96722 30.45785 37131 ft 473 kts 156°
2026-05-07 10:35 33.90810 30.49176 37127 ft 473 kts 156°
2026-05-07 10:36 33.84841 30.52590 37125 ft 474 kts 156°
2026-05-07 10:36 33.78911 30.55980 37126 ft 473 kts 156°
2026-05-07 10:37 33.72949 30.59381 37119 ft 474 kts 156°
2026-05-07 10:37 33.67027 30.62752 37120 ft 473 kts 156°
2026-05-07 10:38 33.61086 30.66133 37113 ft 472 kts 156°
2026-05-07 10:38 33.55150 30.69507 37116 ft 471 kts 157°
2026-05-07 10:39 33.49201 30.72878 37116 ft 472 kts 156°
2026-05-07 10:39 33.43275 30.76234 37118 ft 472 kts 156°
2026-05-07 10:40 33.37361 30.79579 37115 ft 472 kts 156°
2026-05-07 10:40 33.31418 30.82934 37114 ft 473 kts 156°
2026-05-07 10:41 33.25452 30.86301 37116 ft 471 kts 156°
2026-05-07 10:41 33.19541 30.89626 37118 ft 470 kts 156°
2026-05-07 10:42 33.13564 30.92677 37117 ft 468 kts 163°
2026-05-07 10:42 33.07308 30.94846 37115 ft 465 kts 171°
2026-05-07 10:43 33.00966 30.96042 37114 ft 462 kts 178°
2026-05-07 10:43 32.94536 30.96740 37115 ft 463 kts 178°
2026-05-07 10:44 32.88131 30.97437 37109 ft 462 kts 178°
2026-05-07 10:44 32.81720 30.98145 37112 ft 462 kts 178°
2026-05-07 10:45 32.75325 30.98858 37115 ft 462 kts 178°
2026-05-07 10:45 32.68915 30.99574 37116 ft 461 kts 178°
2026-05-07 10:46 32.62511 31.00286 37112 ft 461 kts 178°
2026-05-07 10:46 32.56137 31.00993 37112 ft 461 kts 178°
2026-05-07 10:47 32.49776 31.01698 37113 ft 461 kts 178°
2026-05-07 10:47 32.43407 31.02405 37114 ft 460 kts 178°
2026-05-07 10:48 32.37018 31.03112 37114 ft 461 kts 178°
2026-05-07 10:48 32.30627 31.03819 37114 ft 460 kts 178°
2026-05-07 10:49 32.24251 31.04523 37111 ft 460 kts 178°
2026-05-07 10:49 32.17859 31.05228 37113 ft 460 kts 177°
2026-05-07 10:50 32.11491 31.05929 37113 ft 460 kts 177°
2026-05-07 10:50 32.05130 31.06629 37114 ft 459 kts 177°
2026-05-07 10:51 31.98734 31.07323 37110 ft 459 kts 177°
2026-05-07 10:51 31.92393 31.08004 37109 ft 458 kts 178°
2026-05-07 10:52 31.86043 31.08685 37104 ft 458 kts 177°
2026-05-07 10:52 31.79670 31.09371 37103 ft 459 kts 178°
2026-05-07 10:53 31.73299 31.10054 37107 ft 459 kts 177°
2026-05-07 10:53 31.66944 31.10735 37096 ft 457 kts 178°
2026-05-07 10:54 31.60599 31.11417 37097 ft 457 kts 177°
2026-05-07 10:54 31.54276 31.12094 37092 ft 458 kts 176°
2026-05-07 10:55 31.47959 31.13150 37080 ft 458 kts 173°
2026-05-07 10:55 31.41669 31.14337 37083 ft 458 kts 173°
2026-05-07 10:56 31.35374 31.15523 37087 ft 458 kts 173°
2026-05-07 10:56 31.29100 31.16701 37078 ft 457 kts 173°
2026-05-07 10:57 31.22788 31.17879 37069 ft 457 kts 173°
2026-05-07 10:57 31.16517 31.19043 37057 ft 457 kts 173°
2026-05-07 10:58 31.10250 31.20211 37069 ft 457 kts 173°
2026-05-07 10:58 31.04000 31.21374 37066 ft 455 kts 173°
2026-05-07 10:59 30.97727 31.22537 37053 ft 456 kts 173°
2026-05-07 10:59 30.91482 31.23694 37055 ft 456 kts 173°
2026-05-07 11:00 30.85189 31.24862 37053 ft 457 kts 173°
2026-05-07 11:00 30.78900 31.26024 37045 ft 457 kts 173°
2026-05-07 11:01 30.72616 31.27187 37051 ft 457 kts 173°
2026-05-07 11:01 30.66371 31.28340 37054 ft 456 kts 173°
2026-05-07 11:02 30.60074 31.29499 37048 ft 456 kts 173°
2026-05-07 11:02 30.53807 31.30654 37052 ft 458 kts 173°
2026-05-07 11:03 30.47496 31.31815 37043 ft 458 kts 173°
2026-05-07 11:03 30.41172 31.32977 37050 ft 457 kts 173°
2026-05-07 11:04 30.34891 31.34128 37046 ft 458 kts 173°
2026-05-07 11:04 30.28606 31.35283 37046 ft 457 kts 173°
2026-05-07 11:05 30.22301 31.36438 37042 ft 458 kts 173°
2026-05-07 11:05 30.16002 31.37676 37039 ft 459 kts 169°
2026-05-07 11:06 30.09883 31.39865 37045 ft 462 kts 159°
2026-05-07 11:06 30.04141 31.43249 37057 ft 463 kts 148°
2026-05-07 11:07 29.98891 31.47559 37060 ft 463 kts 143°
2026-05-07 11:07 29.93727 31.52014 37060 ft 464 kts 143°
2026-05-07 11:08 29.88537 31.56463 37063 ft 464 kts 144°
2026-05-07 11:08 29.83360 31.60878 37058 ft 463 kts 144°
2026-05-07 11:09 29.78182 31.65281 37061 ft 463 kts 144°
2026-05-07 11:09 29.73011 31.69671 37070 ft 462 kts 144°
2026-05-07 11:10 29.67851 31.74046 37066 ft 462 kts 144°
2026-05-07 11:10 29.62658 31.78442 37067 ft 462 kts 144°
2026-05-07 11:11 29.57504 31.82801 37066 ft 461 kts 144°
2026-05-07 11:11 29.52355 31.87148 37064 ft 461 kts 144°
2026-05-07 11:12 29.47181 31.91512 37073 ft 461 kts 144°
2026-05-07 11:12 29.42028 31.95852 37072 ft 460 kts 144°
2026-05-07 11:13 29.36857 32.00202 37073 ft 460 kts 144°
2026-05-07 11:13 29.31732 32.04509 37068 ft 459 kts 145°
2026-05-07 11:14 29.26582 32.08830 37066 ft 458 kts 145°
2026-05-07 11:14 29.21457 32.13124 37067 ft 458 kts 145°
2026-05-07 11:15 29.16291 32.17448 37061 ft 458 kts 145°
2026-05-07 11:15 29.11167 32.21730 37047 ft 458 kts 145°
2026-05-07 11:16 29.06035 32.26015 37024 ft 458 kts 145°
2026-05-07 11:16 29.00870 32.30320 36998 ft 456 kts 145°
2026-05-07 11:17 28.95756 32.34580 36988 ft 456 kts 145°
2026-05-07 11:17 28.90644 32.38831 36997 ft 457 kts 145°
2026-05-07 11:18 28.85474 32.43127 37006 ft 457 kts 145°
2026-05-07 11:18 28.82896 32.45266 36782 ft 457 kts 145°
2026-05-07 11:18 28.80336 32.47388 36504 ft 454 kts 145°
2026-05-07 11:19 28.77789 32.49500 36225 ft 451 kts 145°
2026-05-07 11:19 28.75278 32.51579 35961 ft 448 kts 145°
2026-05-07 11:19 28.72756 32.53666 35726 ft 446 kts 145°
2026-05-07 11:19 28.70272 32.55721 35512 ft 445 kts 145°
2026-05-07 11:20 28.67756 32.57801 35293 ft 445 kts 145°
2026-05-07 11:20 28.65236 32.59884 35073 ft 446 kts 145°
2026-05-07 11:20 28.62756 32.61932 34858 ft 446 kts 145°
2026-05-07 11:20 28.60232 32.64015 34637 ft 446 kts 145°
2026-05-07 11:21 28.57702 32.66101 34414 ft 446 kts 145°
2026-05-07 11:21 28.55213 32.68154 34197 ft 446 kts 145°
2026-05-07 11:21 28.52679 32.70242 33971 ft 446 kts 145°
2026-05-07 11:21 28.50149 32.72325 33703 ft 447 kts 145°
2026-05-07 11:22 28.47656 32.74376 33441 ft 447 kts 145°
2026-05-07 11:22 28.45123 32.76460 33179 ft 447 kts 145°
2026-05-07 11:22 28.42619 32.78518 32919 ft 448 kts 145°
2026-05-07 11:22 28.40083 32.80600 32657 ft 448 kts 145°
2026-05-07 11:23 28.37554 32.82677 32396 ft 448 kts 145°
2026-05-07 11:23 28.35047 32.84733 32138 ft 448 kts 145°
2026-05-07 11:23 28.32510 32.86814 31876 ft 449 kts 145°
2026-05-07 11:23 28.29965 32.88899 31615 ft 449 kts 145°
2026-05-07 11:24 28.27425 32.90980 31354 ft 449 kts 145°
2026-05-07 11:24 28.24918 32.93033 31097 ft 450 kts 145°
2026-05-07 11:24 28.22367 32.95120 30835 ft 450 kts 146°
2026-05-07 11:24 28.19845 32.97182 30495 ft 451 kts 145°
2026-05-07 11:25 28.17282 32.99277 30005 ft 452 kts 146°
2026-05-07 11:25 28.14749 33.01347 29408 ft 453 kts 146°
2026-05-07 11:25 28.12185 33.03440 28752 ft 453 kts 146°
2026-05-07 11:25 28.09617 33.05534 28067 ft 453 kts 145°
2026-05-07 11:26 28.07082 33.07600 27363 ft 454 kts 145°
2026-05-07 11:26 28.04525 33.09683 26625 ft 455 kts 145°
2026-05-07 11:26 28.01941 33.11785 25861 ft 457 kts 145°
2026-05-07 11:26 27.99348 33.13890 25095 ft 458 kts 144°
2026-05-07 11:27 27.96792 33.15964 24357 ft 457 kts 144°
2026-05-07 11:27 27.94207 33.18061 23826 ft 451 kts 144°
2026-05-07 11:27 27.91682 33.20111 23300 ft 446 kts 144°
2026-05-07 11:27 27.89159 33.22160 22751 ft 442 kts 144°
2026-05-07 11:28 27.86691 33.24164 22204 ft 438 kts 144°
2026-05-07 11:28 27.84222 33.26167 21657 ft 434 kts 144°
2026-05-07 11:28 27.81771 33.28155 21100 ft 430 kts 144°
2026-05-07 11:28 27.79375 33.30096 20565 ft 427 kts 144°
2026-05-07 11:29 27.76962 33.32049 20009 ft 424 kts 144°
2026-05-07 11:29 27.74594 33.33966 19474 ft 421 kts 144°
2026-05-07 11:29 27.72210 33.35894 18943 ft 417 kts 145°
2026-05-07 11:29 27.69878 33.37779 18392 ft 415 kts 145°
2026-05-07 11:30 27.67530 33.39675 17867 ft 412 kts 145°
2026-05-07 11:30 27.65201 33.41556 17327 ft 409 kts 145°
2026-05-07 11:30 27.62889 33.43422 16809 ft 406 kts 144°
2026-05-07 11:30 27.60616 33.45257 16313 ft 403 kts 145°
2026-05-07 11:31 27.58356 33.47081 15783 ft 401 kts 145°
2026-05-07 11:31 27.56075 33.48919 15255 ft 398 kts 145°
2026-05-07 11:31 27.53849 33.50712 14738 ft 396 kts 145°
2026-05-07 11:31 27.51601 33.52520 14206 ft 394 kts 145°
2026-05-07 11:32 27.47175 33.56072 13143 ft 389 kts 145°
2026-05-07 11:32 27.44999 33.57816 12632 ft 387 kts 145°
2026-05-07 11:32 27.42810 33.59572 12099 ft 385 kts 145°
2026-05-07 11:33 27.40637 33.61315 11571 ft 383 kts 145°
2026-05-07 11:33 27.38473 33.63051 11085 ft 380 kts 145°
2026-05-07 11:33 27.36353 33.64752 10767 ft 370 kts 144°
2026-05-07 11:33 27.34292 33.66404 10577 ft 357 kts 145°
2026-05-07 11:34 27.32309 33.67994 10429 ft 344 kts 145°
2026-05-07 11:34 27.30383 33.69538 10270 ft 332 kts 145°
2026-05-07 11:34 27.28529 33.71024 10123 ft 320 kts 145°
2026-05-07 11:34 27.26738 33.72459 9983 ft 309 kts 145°
2026-05-07 11:35 27.25006 33.73846 9717 ft 304 kts 145°
2026-05-07 11:35 27.23285 33.75222 9347 ft 302 kts 145°
2026-05-07 11:35 27.21591 33.76575 8998 ft 300 kts 145°
2026-05-07 11:35 27.19885 33.77936 8648 ft 299 kts 145°
2026-05-07 11:36 27.18203 33.79279 8301 ft 297 kts 145°
2026-05-07 11:36 27.16513 33.80630 7952 ft 295 kts 145°
2026-05-07 11:36 27.14859 33.81956 7612 ft 293 kts 145°
2026-05-07 11:36 27.13193 33.83291 7279 ft 292 kts 145°
2026-05-07 11:37 27.11536 33.84622 6944 ft 290 kts 145°
2026-05-07 11:37 27.09911 33.85923 6611 ft 288 kts 145°
2026-05-07 11:37 27.08285 33.87222 6300 ft 286 kts 145°
2026-05-07 11:37 27.06662 33.88520 5985 ft 284 kts 145°
2026-05-07 11:38 27.05064 33.89799 5664 ft 283 kts 145°
2026-05-07 11:38 27.03447 33.91092 5341 ft 282 kts 145°
2026-05-07 11:38 27.01872 33.92346 5016 ft 281 kts 145°
2026-05-07 11:38 27.00276 33.93613 4692 ft 280 kts 147°
2026-05-07 11:39 26.98507 33.94483 4299 ft 277 kts 176°
2026-05-07 11:39 26.96635 33.94199 3945 ft 269 kts 207°
2026-05-07 11:39 26.95181 33.92985 3603 ft 260 kts 236°
2026-05-07 11:39 26.94410 33.91209 3290 ft 249 kts 263°
2026-05-07 11:40 26.94419 33.89316 2990 ft 241 kts 288°
2026-05-07 11:40 26.95215 33.87735 2694 ft 234 kts 317°
2026-05-07 11:40 26.96511 33.86653 2411 ft 232 kts 332°
2026-05-07 11:40 26.97986 33.85973 2174 ft 236 kts 341°
2026-05-07 11:41 26.99592 33.85470 2121 ft 240 kts 345°
2026-05-07 11:41 27.01205 33.85015 2110 ft 231 kts 345°
2026-05-07 11:41 27.02691 33.84591 2099 ft 211 kts 345°
2026-05-07 11:41 27.04111 33.84174 2110 ft 209 kts 344°
2026-05-07 11:42 27.05516 33.83756 2066 ft 204 kts 344°
2026-05-07 11:42 27.06851 33.83360 1854 ft 193 kts 344°
2026-05-07 11:42 27.08109 33.82986 1687 ft 178 kts 344°
2026-05-07 11:42 27.09282 33.82638 1427 ft 167 kts 344°
2026-05-07 11:43 27.10382 33.82312 1208 ft 155 kts 345°
2026-05-07 11:43 27.11366 33.82020 997 ft 140 kts 345°
2026-05-07 11:43 27.12262 33.81753 790 ft 127 kts 345°
2026-05-07 11:43 27.13104 33.81488 598 ft 126 kts 345°
2026-05-07 11:44 27.13947 33.81239 445 ft 125 kts 347°
2026-05-07 11:44 27.14796 33.80986 305 ft 125 kts 346°
2026-05-07 11:44 27.15639 33.80738 168 ft 123 kts 348°
2026-05-07 11:44 27.16471 33.80495 67 ft 123 kts 346°
2026-05-07 11:45 27.17206 33.80284 60 ft 86 kts 346°
2026-05-07 11:45 27.17632 33.80164 60 ft 44 kts 345°
2026-05-07 11:45 27.17911 33.80082 60 ft 39 kts 346°
2026-05-07 11:45 27.18162 33.80007 60 ft 35 kts 346°
2026-05-07 11:46 27.18389 33.79942 60 ft 20 kts 347°
2026-05-07 11:46 27.18475 33.80035 60 ft 11 kts 77°
2026-05-07 11:46 27.18417 33.80109 60 ft 17 kts 163°
2026-05-07 11:46 27.18282 33.80148 60 ft 22 kts 166°
2026-05-07 11:47 27.18180 33.80245 60 ft 21 kts 74°
2026-05-07 11:47 27.18201 33.80402 60 ft 19 kts 122°
2026-05-07 11:47 27.18076 33.80456 60 ft 19 kts 165°
2026-05-07 11:47 27.18044 33.80517 60 ft 10 kts 69°
2026-05-07 11:48 27.18068 33.80577 60 ft 3 kts 65°
2026-05-07 11:48 27.18071 33.80584 60 ft 0 kts 66°
2026-05-07 11:48 27.18073 33.80589 60 ft 0 kts 66°